AEE56N EDDM-LGAV

Flight info

Callsign AEE56N
Flight time N/A
Altitude 37000
Route VAVOR M867 RADIZ DCT REKTI DCT NEMEK DCT ELTIB DCT PINDO DCT PIKOS UL607 XORKI
Aircraft A320/M-SDE3FGHIRWY/LB1

Departure

Time N/A
Airport Munich Airport (EDDM)

Arrival

Time 2026-05-07 10:32
Airport Athens Eleftherios Venizelos International Airport (LGAV)
Time Latitude Longitude Altitude Speed Heading
2026-05-07 08:32 47.41058 12.89557 23033 ft 404 kts 143°
2026-05-07 08:32 47.38915 12.92251 23366 ft 405 kts 144°
2026-05-07 08:33 47.36744 12.94914 23675 ft 406 kts 145°
2026-05-07 08:33 47.34562 12.97560 23943 ft 407 kts 146°
2026-05-07 08:33 47.32379 13.00208 24216 ft 406 kts 146°
2026-05-07 08:33 47.30207 13.02855 24492 ft 406 kts 146°
2026-05-07 08:34 47.28017 13.05538 24966 ft 409 kts 146°
2026-05-07 08:34 47.25826 13.08232 25487 ft 411 kts 146°
2026-05-07 08:34 47.23624 13.10941 26023 ft 414 kts 147°
2026-05-07 08:34 47.21410 13.13660 26636 ft 416 kts 147°
2026-05-07 08:35 47.19174 13.16402 27168 ft 419 kts 147°
2026-05-07 08:35 47.16928 13.19156 27688 ft 421 kts 147°
2026-05-07 08:35 47.14670 13.21924 28253 ft 423 kts 147°
2026-05-07 08:35 47.12401 13.24702 28769 ft 425 kts 147°
2026-05-07 08:36 47.10127 13.27485 29337 ft 425 kts 147°
2026-05-07 08:36 47.07863 13.30250 30153 ft 422 kts 148°
2026-05-07 08:36 47.05620 13.32990 30898 ft 418 kts 148°
2026-05-07 08:36 47.03386 13.35713 31533 ft 416 kts 148°
2026-05-07 08:37 47.01191 13.38378 32136 ft 415 kts 148°
2026-05-07 08:37 46.98958 13.41079 32699 ft 417 kts 148°
2026-05-07 08:37 46.96718 13.43787 33334 ft 418 kts 148°
2026-05-07 08:37 46.94480 13.46499 33983 ft 417 kts 148°
2026-05-07 08:38 46.92243 13.49214 34432 ft 418 kts 148°
2026-05-07 08:38 46.89999 13.51936 34854 ft 420 kts 147°
2026-05-07 08:38 46.87740 13.54667 35323 ft 421 kts 147°
2026-05-07 08:38 46.85476 13.57397 35751 ft 423 kts 147°
2026-05-07 08:39 46.83201 13.60136 36205 ft 424 kts 147°
2026-05-07 08:39 46.80918 13.62879 36659 ft 426 kts 147°
2026-05-07 08:39 46.78614 13.65640 36929 ft 429 kts 147°
2026-05-07 08:39 46.76306 13.68403 36972 ft 431 kts 147°
2026-05-07 08:40 46.71663 13.73964 36981 ft 432 kts 147°
2026-05-07 08:40 46.67049 13.79488 36994 ft 432 kts 147°
2026-05-07 08:41 46.62373 13.85075 36993 ft 432 kts 147°
2026-05-07 08:41 46.57767 13.90697 36990 ft 435 kts 142°
2026-05-07 08:42 46.53469 13.96823 36988 ft 436 kts 142°
2026-05-07 08:42 46.49130 14.02996 36996 ft 437 kts 142°
2026-05-07 08:43 46.44781 14.09150 36998 ft 436 kts 142°
2026-05-07 08:43 46.40426 14.15293 37000 ft 436 kts 142°
2026-05-07 08:44 46.36075 14.21417 37001 ft 436 kts 142°
2026-05-07 08:44 46.31733 14.27532 37006 ft 436 kts 142°
2026-05-07 08:45 46.27380 14.33650 36985 ft 435 kts 142°
2026-05-07 08:45 46.23051 14.39700 37009 ft 437 kts 142°
2026-05-07 08:46 46.18682 14.45800 36999 ft 437 kts 142°
2026-05-07 08:46 46.14313 14.51888 37003 ft 437 kts 142°
2026-05-07 08:47 46.09937 14.57972 37002 ft 437 kts 142°
2026-05-07 08:47 46.05563 14.64037 37001 ft 436 kts 142°
2026-05-07 08:48 46.01188 14.70093 36994 ft 436 kts 142°
2026-05-07 08:48 45.96800 14.76148 37005 ft 437 kts 142°
2026-05-07 08:49 45.92407 14.82186 37009 ft 437 kts 143°
2026-05-07 08:49 45.88007 14.88218 37011 ft 437 kts 143°
2026-05-07 08:50 45.83607 14.94252 37010 ft 438 kts 143°
2026-05-07 08:50 45.79202 15.00280 37010 ft 438 kts 143°
2026-05-07 08:51 45.74796 15.06294 37010 ft 438 kts 143°
2026-05-07 08:51 45.70391 15.12296 37010 ft 437 kts 143°
2026-05-07 08:52 45.66001 15.18251 37011 ft 437 kts 143°
2026-05-07 08:52 45.61583 15.24226 37013 ft 437 kts 143°
2026-05-07 08:53 45.57907 15.29187 37011 ft 437 kts 143°
2026-05-07 08:53 45.53375 15.35016 37013 ft 435 kts 146°
2026-05-07 08:54 45.48796 15.40549 37016 ft 434 kts 147°
2026-05-07 08:54 45.44174 15.46096 37019 ft 435 kts 146°
2026-05-07 08:55 45.39574 15.51703 37017 ft 435 kts 146°
2026-05-07 08:55 45.34989 15.57321 37018 ft 435 kts 146°
2026-05-07 08:56 45.30388 15.62931 37005 ft 435 kts 146°
2026-05-07 08:56 45.25779 15.68511 37022 ft 436 kts 146°
2026-05-07 08:57 45.21158 15.74094 37025 ft 436 kts 146°
2026-05-07 08:57 45.16535 15.79692 37033 ft 437 kts 146°
2026-05-07 08:58 45.11911 15.85275 37034 ft 437 kts 146°
2026-05-07 08:58 45.07278 15.90847 37016 ft 437 kts 146°
2026-05-07 08:59 45.02642 15.96411 37036 ft 438 kts 146°
2026-05-07 08:59 44.97988 16.01988 37036 ft 439 kts 146°
2026-05-07 09:00 44.93329 16.07558 37044 ft 439 kts 146°
2026-05-07 09:00 44.88700 16.13079 37044 ft 439 kts 146°
2026-05-07 09:01 44.84037 16.18634 37016 ft 438 kts 145°
2026-05-07 09:01 44.79383 16.24157 37034 ft 437 kts 145°
2026-05-07 09:02 44.74715 16.29677 37038 ft 438 kts 145°
2026-05-07 09:02 44.70047 16.35189 37038 ft 438 kts 145°
2026-05-07 09:03 44.65371 16.40708 37038 ft 438 kts 145°
2026-05-07 09:03 44.60703 16.46211 37033 ft 437 kts 145°
2026-05-07 09:04 44.56080 16.51649 37027 ft 435 kts 145°
2026-05-07 09:04 44.51395 16.57140 37038 ft 437 kts 145°
2026-05-07 09:05 44.46758 16.62561 37046 ft 437 kts 145°
2026-05-07 09:05 44.42086 16.68004 37046 ft 437 kts 145°
2026-05-07 09:06 44.37392 16.73469 37053 ft 436 kts 145°
2026-05-07 09:06 44.32763 16.78856 37053 ft 436 kts 145°
2026-05-07 09:07 44.28092 16.84284 37069 ft 437 kts 145°
2026-05-07 09:07 44.23439 16.89740 37065 ft 437 kts 144°
2026-05-07 09:08 44.18779 16.95206 37073 ft 437 kts 144°
2026-05-07 09:08 44.14123 17.00646 37076 ft 437 kts 145°
2026-05-07 09:09 44.09463 17.06082 37078 ft 437 kts 144°
2026-05-07 09:09 44.04806 17.11497 37082 ft 436 kts 145°
2026-05-07 09:10 44.00173 17.16873 37087 ft 436 kts 145°
2026-05-07 09:10 43.95511 17.22273 37084 ft 437 kts 145°
2026-05-07 09:11 43.90837 17.27666 37087 ft 437 kts 145°
2026-05-07 09:11 43.86163 17.33050 37098 ft 436 kts 145°
2026-05-07 09:12 43.81489 17.38424 37095 ft 436 kts 145°
2026-05-07 09:12 43.76815 17.43799 37106 ft 436 kts 145°
2026-05-07 09:13 43.72140 17.49156 37105 ft 436 kts 145°
2026-05-07 09:13 43.67464 17.54502 37111 ft 436 kts 145°
2026-05-07 09:14 43.62792 17.59833 37113 ft 436 kts 145°
2026-05-07 09:14 43.58106 17.65164 37114 ft 437 kts 145°
2026-05-07 09:15 43.53414 17.70492 37118 ft 437 kts 145°
2026-05-07 09:15 43.48722 17.75810 37110 ft 437 kts 145°
2026-05-07 09:16 43.44063 17.81075 37114 ft 436 kts 145°
2026-05-07 09:16 43.39372 17.86383 37086 ft 436 kts 145°
2026-05-07 09:17 43.34689 17.91666 37084 ft 436 kts 145°
2026-05-07 09:17 43.29993 17.96944 37086 ft 436 kts 145°
2026-05-07 09:18 43.25296 18.02213 37089 ft 436 kts 145°
2026-05-07 09:18 43.20600 18.07467 37094 ft 436 kts 145°
2026-05-07 09:19 43.15905 18.12717 37102 ft 436 kts 145°
2026-05-07 09:19 43.11205 18.17958 37117 ft 436 kts 145°
2026-05-07 09:20 43.06504 18.23198 37121 ft 436 kts 145°
2026-05-07 09:20 43.01797 18.28433 37122 ft 436 kts 145°
2026-05-07 09:21 42.97080 18.33648 37125 ft 436 kts 145°
2026-05-07 09:21 42.92369 18.38852 37125 ft 436 kts 145°
2026-05-07 09:22 42.87657 18.44056 37120 ft 436 kts 146°
2026-05-07 09:22 42.82971 18.49233 37131 ft 436 kts 146°
2026-05-07 09:23 42.78243 18.54434 37129 ft 436 kts 146°
2026-05-07 09:23 42.73507 18.59616 37142 ft 436 kts 146°
2026-05-07 09:24 42.68779 18.64793 37141 ft 436 kts 146°
2026-05-07 09:24 42.64049 18.69965 37126 ft 436 kts 146°
2026-05-07 09:25 42.59312 18.75123 37158 ft 437 kts 146°
2026-05-07 09:25 42.54602 18.80254 37152 ft 436 kts 146°
2026-05-07 09:26 42.49877 18.85392 37160 ft 435 kts 146°
2026-05-07 09:26 42.45147 18.90523 37161 ft 435 kts 146°
2026-05-07 09:27 42.40409 18.95651 37163 ft 436 kts 146°
2026-05-07 09:28 42.33296 19.03322 37162 ft 436 kts 146°
2026-05-07 09:28 42.28557 19.08429 37161 ft 436 kts 146°
2026-05-07 09:29 42.23832 19.13510 37157 ft 436 kts 146°
2026-05-07 09:29 42.19083 19.18606 37145 ft 436 kts 146°
2026-05-07 09:30 42.14312 19.23714 37146 ft 439 kts 146°
2026-05-07 09:30 42.09522 19.28820 37145 ft 439 kts 146°
2026-05-07 09:31 42.04735 19.33917 37148 ft 439 kts 146°
2026-05-07 09:31 41.99951 19.39013 37144 ft 438 kts 146°
2026-05-07 09:32 41.95165 19.44102 37133 ft 438 kts 146°
2026-05-07 09:32 41.90371 19.49172 37133 ft 439 kts 146°
2026-05-07 09:33 41.85601 19.54213 37148 ft 440 kts 146°
2026-05-07 09:33 41.80795 19.59286 37147 ft 439 kts 146°
2026-05-07 09:34 41.75995 19.64346 37147 ft 439 kts 146°
2026-05-07 09:34 41.71191 19.69397 37149 ft 439 kts 146°
2026-05-07 09:35 41.66371 19.74457 37137 ft 442 kts 146°
2026-05-07 09:35 41.61513 19.79542 37150 ft 443 kts 146°
2026-05-07 09:36 41.56677 19.84613 37146 ft 441 kts 146°
2026-05-07 09:36 41.51842 19.89658 37147 ft 441 kts 146°
2026-05-07 09:37 41.47007 19.94683 37124 ft 441 kts 146°
2026-05-07 09:37 41.42163 19.99709 37130 ft 442 kts 146°
2026-05-07 09:38 41.38129 20.03891 37135 ft 442 kts 146°
2026-05-07 09:38 41.33274 20.08920 37146 ft 442 kts 146°
2026-05-07 09:39 41.27625 20.14752 37147 ft 442 kts 147°
2026-05-07 09:39 41.23554 20.18955 37155 ft 442 kts 147°
2026-05-07 09:40 41.18700 20.23954 37158 ft 443 kts 147°
2026-05-07 09:40 41.13853 20.28938 37160 ft 444 kts 147°
2026-05-07 09:41 41.08974 20.33945 37169 ft 443 kts 147°
2026-05-07 09:41 41.04090 20.38943 37168 ft 444 kts 147°
2026-05-07 09:42 40.99206 20.43939 37165 ft 444 kts 147°
2026-05-07 09:42 40.94313 20.48923 37173 ft 443 kts 147°
2026-05-07 09:43 40.89412 20.53905 37176 ft 444 kts 147°
2026-05-07 09:43 40.84512 20.58882 37176 ft 444 kts 147°
2026-05-07 09:44 40.79611 20.63845 37181 ft 445 kts 147°
2026-05-07 09:44 40.74729 20.68777 37182 ft 445 kts 147°
2026-05-07 09:45 40.69819 20.73742 37176 ft 445 kts 147°
2026-05-07 09:45 40.64891 20.78709 37190 ft 446 kts 147°
2026-05-07 09:46 40.59952 20.83674 37188 ft 447 kts 147°
2026-05-07 09:46 40.55001 20.88647 37193 ft 448 kts 147°
2026-05-07 09:47 40.50041 20.93622 37196 ft 448 kts 147°
2026-05-07 09:47 40.45160 20.98705 37177 ft 448 kts 144°
2026-05-07 09:48 40.40484 21.04150 37199 ft 450 kts 142°
2026-05-07 09:48 40.35846 21.09682 37195 ft 450 kts 142°
2026-05-07 09:49 40.31198 21.15097 37187 ft 449 kts 143°
2026-05-07 09:49 40.26459 21.20506 37198 ft 452 kts 143°
2026-05-07 09:50 40.21711 21.25921 37194 ft 452 kts 143°
2026-05-07 09:50 40.16968 21.31338 37190 ft 453 kts 143°
2026-05-07 09:51 40.12204 21.36773 37187 ft 454 kts 143°
2026-05-07 09:51 40.07437 21.42200 37177 ft 455 kts 143°
2026-05-07 09:52 40.02670 21.47625 37180 ft 455 kts 143°
2026-05-07 09:52 39.97926 21.53007 37177 ft 455 kts 143°
2026-05-07 09:53 39.93150 21.58415 37167 ft 455 kts 143°
2026-05-07 09:53 39.88359 21.63827 37166 ft 456 kts 143°
2026-05-07 09:54 39.83555 21.69235 37162 ft 456 kts 143°
2026-05-07 09:54 39.78749 21.74635 37163 ft 457 kts 143°
2026-05-07 09:55 39.73948 21.80040 37141 ft 457 kts 143°
2026-05-07 09:55 39.69129 21.85452 37152 ft 458 kts 144°
2026-05-07 09:56 39.64299 21.90858 37142 ft 459 kts 143°
2026-05-07 09:56 39.59439 21.96270 37157 ft 461 kts 144°
2026-05-07 09:57 39.54574 22.01687 37135 ft 461 kts 144°
2026-05-07 09:57 39.49714 22.07100 37131 ft 461 kts 143°
2026-05-07 09:58 39.44851 22.12510 37149 ft 461 kts 144°
2026-05-07 09:58 39.39964 22.17928 37133 ft 465 kts 144°
2026-05-07 09:59 39.35061 22.23337 37130 ft 468 kts 144°
2026-05-07 09:59 39.30068 22.28835 37133 ft 469 kts 144°
2026-05-07 10:00 39.25140 22.34271 37129 ft 469 kts 144°
2026-05-07 10:00 39.20176 22.39740 37129 ft 469 kts 144°
2026-05-07 10:01 39.15212 22.45190 37129 ft 469 kts 144°
2026-05-07 10:01 39.10228 22.50652 37110 ft 472 kts 144°
2026-05-07 10:02 39.05213 22.56139 37120 ft 474 kts 144°
2026-05-07 10:02 39.00181 22.61630 37118 ft 475 kts 144°
2026-05-07 10:03 38.95145 22.67119 37119 ft 475 kts 144°
2026-05-07 10:03 38.90096 22.72600 37116 ft 475 kts 144°
2026-05-07 10:04 38.85050 22.78066 37117 ft 475 kts 144°
2026-05-07 10:04 38.79987 22.83551 37118 ft 479 kts 144°
2026-05-07 10:05 38.74882 22.89069 37115 ft 480 kts 144°
2026-05-07 10:05 38.69805 22.94543 37114 ft 480 kts 144°
2026-05-07 10:06 38.64698 23.00043 37111 ft 480 kts 144°
2026-05-07 10:06 38.59584 23.05543 37112 ft 480 kts 144°
2026-05-07 10:07 38.54461 23.11037 37088 ft 481 kts 144°
2026-05-07 10:07 38.49303 23.16550 37104 ft 484 kts 144°
2026-05-07 10:08 38.44138 23.22072 36723 ft 485 kts 144°
2026-05-07 10:08 38.41544 23.24835 36086 ft 486 kts 144°
2026-05-07 10:08 38.38953 23.27596 35535 ft 485 kts 144°
2026-05-07 10:08 38.36368 23.30350 35015 ft 482 kts 143°
2026-05-07 10:09 38.33806 23.33080 34504 ft 480 kts 143°
2026-05-07 10:09 38.31252 23.35797 33977 ft 477 kts 143°
2026-05-07 10:09 38.28739 23.38464 33350 ft 475 kts 143°
2026-05-07 10:09 38.26198 23.41155 32651 ft 475 kts 143°
2026-05-07 10:10 38.23657 23.43842 31915 ft 475 kts 143°
2026-05-07 10:10 38.21075 23.46568 31116 ft 477 kts 143°
2026-05-07 10:10 38.18556 23.49231 30375 ft 478 kts 143°
2026-05-07 10:10 38.16042 23.52109 29508 ft 482 kts 137°
2026-05-07 10:11 38.13759 23.55117 28890 ft 477 kts 137°
2026-05-07 10:11 38.11463 23.58128 28279 ft 471 kts 137°
2026-05-07 10:11 38.09186 23.61092 27668 ft 466 kts 137°
2026-05-07 10:11 38.06930 23.64019 27072 ft 461 kts 137°
2026-05-07 10:12 38.04700 23.66911 26490 ft 456 kts 137°
2026-05-07 10:12 38.02503 23.69760 25753 ft 447 kts 137°
2026-05-07 10:12 38.00344 23.72560 24731 ft 440 kts 136°
2026-05-07 10:12 37.98224 23.75305 23762 ft 433 kts 136°
2026-05-07 10:13 37.96134 23.78012 22642 ft 427 kts 136°
2026-05-07 10:13 37.94068 23.80683 21589 ft 421 kts 136°
2026-05-07 10:13 37.92030 23.83316 20594 ft 416 kts 136°
2026-05-07 10:13 37.90013 23.85919 19642 ft 410 kts 136°
2026-05-07 10:14 37.88032 23.88474 18700 ft 405 kts 136°
2026-05-07 10:14 37.86069 23.91004 17679 ft 399 kts 136°
2026-05-07 10:14 37.84140 23.93488 16648 ft 394 kts 136°
2026-05-07 10:14 37.82233 23.95945 15652 ft 388 kts 136°
2026-05-07 10:15 37.80338 23.98383 14972 ft 388 kts 136°
2026-05-07 10:15 37.78453 24.00804 14453 ft 384 kts 135°
2026-05-07 10:15 37.76584 24.03205 13937 ft 381 kts 135°
2026-05-07 10:15 37.74744 24.05568 13154 ft 374 kts 135°
2026-05-07 10:16 37.72929 24.07896 12205 ft 368 kts 135°
2026-05-07 10:16 37.71168 24.10150 11298 ft 362 kts 135°
2026-05-07 10:16 37.69397 24.12415 10408 ft 356 kts 135°
2026-05-07 10:16 37.67696 24.14586 9741 ft 345 kts 135°
2026-05-07 10:17 37.66080 24.16652 9604 ft 318 kts 135°
2026-05-07 10:17 37.64577 24.18574 9356 ft 300 kts 135°
2026-05-07 10:17 37.63125 24.20430 9002 ft 296 kts 135°
2026-05-07 10:17 37.61690 24.22260 8729 ft 292 kts 136°
2026-05-07 10:18 37.60321 24.24129 8433 ft 289 kts 128°
2026-05-07 10:18 37.59345 24.26343 8107 ft 289 kts 111°
2026-05-07 10:18 37.58884 24.28795 7834 ft 289 kts 96°
2026-05-07 10:18 37.58941 24.31320 7542 ft 288 kts 81°
2026-05-07 10:19 37.59505 24.33723 7255 ft 287 kts 66°
2026-05-07 10:19 37.60549 24.35860 6950 ft 286 kts 50°
2026-05-07 10:19 37.61991 24.37576 6664 ft 285 kts 35°
2026-05-07 10:19 37.63731 24.38761 6374 ft 285 kts 20°
2026-05-07 10:20 37.65645 24.39330 6222 ft 283 kts
2026-05-07 10:20 37.67600 24.39271 6123 ft 281 kts 349°
2026-05-07 10:20 37.69471 24.38579 6015 ft 281 kts 338°
2026-05-07 10:20 37.71309 24.37721 5917 ft 281 kts 338°
2026-05-07 10:21 37.73147 24.36881 5825 ft 281 kts 339°
2026-05-07 10:21 37.74983 24.36045 5718 ft 281 kts 338°
2026-05-07 10:21 37.76825 24.35204 5618 ft 281 kts 338°
2026-05-07 10:21 37.78657 24.34364 5519 ft 281 kts 338°
2026-05-07 10:22 37.80472 24.33528 5421 ft 280 kts 338°
2026-05-07 10:22 37.82303 24.32683 5323 ft 280 kts 338°
2026-05-07 10:22 37.84132 24.31837 5226 ft 280 kts 338°
2026-05-07 10:22 37.85960 24.30987 5125 ft 280 kts 338°
2026-05-07 10:23 37.87787 24.30137 5017 ft 280 kts 338°
2026-05-07 10:23 37.89618 24.29285 4924 ft 280 kts 338°
2026-05-07 10:23 37.91445 24.28432 4825 ft 279 kts 338°
2026-05-07 10:23 37.93268 24.27585 4725 ft 279 kts 338°
2026-05-07 10:24 37.95091 24.26740 4622 ft 278 kts 338°
2026-05-07 10:24 37.96910 24.25899 4524 ft 277 kts 338°
2026-05-07 10:24 37.98722 24.25057 4418 ft 278 kts 338°
2026-05-07 10:24 38.00537 24.24209 4319 ft 277 kts 338°
2026-05-07 10:25 38.02346 24.23362 4205 ft 277 kts 338°
2026-05-07 10:25 38.04136 24.22527 4107 ft 270 kts 338°
2026-05-07 10:25 38.05281 24.21965 4040 ft 262 kts 333°
2026-05-07 10:25 38.06801 24.20798 3934 ft 250 kts 319°
2026-05-07 10:26 38.08498 24.18962 3797 ft 234 kts 311°
2026-05-07 10:26 38.09176 24.17895 3742 ft 228 kts 300°
2026-05-07 10:26 38.09832 24.16095 3642 ft 223 kts 283°
2026-05-07 10:26 38.10071 24.14166 3567 ft 221 kts 272°
2026-05-07 10:27 38.10208 24.12230 3491 ft 220 kts 272°
2026-05-07 10:27 38.10182 24.10303 3417 ft 217 kts 253°
2026-05-07 10:27 38.09540 24.08607 3344 ft 212 kts 228°
2026-05-07 10:27 38.08437 24.07382 3275 ft 212 kts 216°
2026-05-07 10:28 38.07272 24.06294 3214 ft 202 kts 216°
2026-05-07 10:28 38.06162 24.05245 3029 ft 197 kts 216°
2026-05-07 10:28 38.05072 24.04206 2799 ft 195 kts 217°
2026-05-07 10:28 38.03992 24.03176 2558 ft 193 kts 216°
2026-05-07 10:29 38.02940 24.02171 2305 ft 187 kts 216°
2026-05-07 10:29 38.01923 24.01200 2053 ft 180 kts 214°
2026-05-07 10:29 38.00960 24.00280 1827 ft 165 kts 216°
2026-05-07 10:30 37.99316 23.98709 1405 ft 141 kts 216°
2026-05-07 10:30 37.98555 23.97961 1211 ft 140 kts 213°
2026-05-07 10:30 37.97764 23.97216 1036 ft 139 kts 212°
2026-05-07 10:30 37.96992 23.96479 844 ft 143 kts 210°
2026-05-07 10:31 37.96198 23.95742 747 ft 138 kts 215°
2026-05-07 10:31 37.95447 23.95007 521 ft 135 kts 212°
2026-05-07 10:31 37.94701 23.94312 354 ft 132 kts 214°
2026-05-07 10:31 37.94028 23.93679 298 ft 102 kts 217°
2026-05-07 10:32 37.93635 23.93305 292 ft 36 kts 217°
2026-05-07 10:32 37.93465 23.93176 290 ft 23 kts 195°
2026-05-07 10:32 37.93321 23.93134 294 ft 8 kts 186°
2026-05-07 10:32 37.93273 23.93141 296 ft 6 kts 154°
2026-05-07 10:33 37.93252 23.93180 300 ft 5 kts 109°
2026-05-07 10:33 37.93245 23.93212 300 ft 0 kts 105°
2026-05-07 10:33 37.93245 23.93213 300 ft 1 kts 105°
2026-05-07 10:33 37.93243 23.93229 300 ft 6 kts 96°
2026-05-07 10:34 37.93246 23.93350 304 ft 18 kts 59°
2026-05-07 10:34 37.93346 23.93449 304 ft 16 kts 37°
2026-05-07 10:34 37.93357 23.93565 301 ft 16 kts 126°
2026-05-07 10:34 37.93283 23.93687 302 ft 19 kts 127°
2026-05-07 10:35 37.93198 23.93830 302 ft 22 kts 127°
2026-05-07 10:35 37.93105 23.93983 303 ft 15 kts 128°
2026-05-07 10:35 37.93105 23.94068 302 ft 11 kts 47°
2026-05-07 10:35 37.93177 23.94132 301 ft 14 kts 36°
2026-05-07 10:36 37.93262 23.94210 301 ft 16 kts 37°
2026-05-07 10:36 37.93252 23.94339 301 ft 18 kts 126°
2026-05-07 10:36 37.93174 23.94472 301 ft 10 kts 128°
2026-05-07 10:36 37.93172 23.94552 302 ft 12 kts 38°
2026-05-07 10:37 37.93244 23.94619 303 ft 14 kts 37°
2026-05-07 10:37 37.93329 23.94701 301 ft 17 kts 37°
2026-05-07 10:37 37.93428 23.94796 303 ft 19 kts 37°
2026-05-07 10:37 37.93540 23.94903 301 ft 22 kts 37°
2026-05-07 10:38 37.93658 23.95016 303 ft 11 kts 37°
2026-05-07 10:38 37.93724 23.95078 302 ft 13 kts 37°
2026-05-07 10:38 37.93800 23.95151 302 ft 9 kts 38°
2026-05-07 10:38 37.93842 23.95132 300 ft 8 kts 306°
2026-05-07 10:39 37.93863 23.95095 301 ft 1 kts 307°
2026-05-07 10:39 37.93870 23.95084 301 ft 0 kts 307°
2026-05-07 10:39 37.93871 23.95083 301 ft 0 kts 307°